Location: Paralde Spring
(38.5794°N, 119.0140°W)
Time: 22:55:06
(UTC+00:00)

SJ-6F - Pass Details

Date: 18 September 2020
Orbit: 570 x 594 km, 97.8° (Epoch: 20 October)

Event Time Altitude Azimuth Distance (km) Brightness Sun altitude
Rises 12:19:02 0° 12° (NNE) 2,806 8.3 -16.6°
Reaches altitude 10° 12:21:13 10° 13° (NNE) 1,898 7.4 -16.2°
Maximum altitude 12:25:20 88° 98° (E) 581 4.4 -15.4°
Drops below altitude 10° 12:29:23 10° 193° (SSW) 1,871 6.8 -14.6°
Enters shadow 12:31:23 - 193° (SSW) 2,706 7.6 -14.2°
